Theta_e
318 316 314 314 309 305 306 303 302 301 299 296 294 294 292 289 287 284 284 286 286 287 289 288 290 289 288 288 287 286 286 288 287 285 284 285 284 290 292 293 294 295 295 295 295 295 296 296 297 297 297 297 297 297 297 297 297 297 297 298 298 297 297 297 297 297 297 298 298 299 298 297 297 298
315 312 311 308 305 304 304 301 298 296 295 294 293 292 292 291 289 287 284 284 286 287 288 287 288 287 287 287 287 286 286 291 287 285 285 285 284 291 292 292 293 293 294 294 294 295 295 296 296 296 296 296 296 296 296 296 296 296 297 297 297 296 296 296 296 296 296 297 298 298 298 298 299 300
311 308 306 303 303 303 301 299 296 293 294 294 292 293 292 291 290 288 285 282 286 289 287 288 287 288 286 287 286 287 287 288 287 285 284 284 288 291 289 291 292 292 293 293 293 294 295 295 295 295 295 295 295 295 295 295 295 295 295 295 295 295 295 295 295 295 296 296 297 297 297 298 300 301
310 307 304 301 301 299 298 296 295 293 292 292 292 291 291 290 290 287 285 284 284 287 287 286 286 286 286 285 285 285 286 288 289 284 285 285 288 285 284 289 291 291 292 292 292 292 293 294 294 294 294 294 294 294 294 294 293 293 293 293 293 293 293 294 294 295 295 295 296 296 296 298 299 300
303 304 302 300 299 297 297 295 294 294 292 291 290 290 289 287 286 287 285 285 283 285 285 285 285 285 285 285 284 283 284 284 284 287 284 284 284 283 284 284 288 291 291 291 291 291 292 292 293 292 292 292 292 292 293 292 292 291 291 291 291 292 293 294 294 294 294 295 295 296 296 296 298 298
302 300 299 297 296 296 295 293 293 292 291 290 289 287 287 285 286 284 286 284 283 284 284 283 284 284 284 283 284 283 282 282 282 282 283 284 283 283 284 284 285 290 291 290 291 291 291 291 291 290 290 291 291 291 291 291 290 290 290 290 290 291 292 293 293 293 293 294 294 295 295 296 297 298
299 298 295 294 293 293 292 291 291 290 289 288 287 286 286 285 284 284 284 284 283 282 283 283 283 283 283 282 283 283 283 282 283 282 281 282 284 284 283 283 284 289 290 290 290 290 290 290 290 289 289 290 290 290 290 290 289 288 288 289 289 290 290 291 292 292 292 292 293 294 294 294 295 297
298 298 296 293 293 292 291 289 288 287 287 286 286 285 285 285 284 283 283 283 283 283 283 282 283 283 283 282 282 283 282 282 282 281 282 281 281 282 283 282 282 286 289 289 289 289 288 288 288 288 289 289 289 289 289 288 288 287 287 288 289 289 290 290 290 290 290 291 292 293 294 294 295 296
298 297 296 293 292 291 290 288 287 286 285 285 285 285 285 284 284 284 283 282 282 282 283 282 282 281 281 281 281 281 282 281 280 279 280 280 280 280 281 282 283 288 288 288 287 287 287 287 287 287 288 288 287 287 287 287 286 286 286 287 288 289 289 289 289 289 290 290 290 292 293 294 294 295
297 296 295 292 291 290 289 287 286 285 285 285 284 284 284 284 284 283 282 282 281 281 281 281 282 281 282 280 281 281 281 281 279 279 278 279 279 279 278 279 282 282 282 281 282 284 284 285 286 286 286 286 286 286 286 286 285 285 286 287 288 288 288 289 289 289 289 289 290 291 292 293 293 293
294 295 293 291 291 290 289 287 285 285 285 285 284 284 284 284 283 282 282 281 281 281 280 280 281 280 281 281 280 281 280 280 279 278 277 277 278 279 278 277 279 280 281 283 284 283 283 284 284 285 285 285 285 285 285 284 284 284 286 287 287 288 288 288 288 288 289 289 290 290 291 291 292 293
294 293 292 291 290 290 288 286 286 286 285 285 284 284 284 283 282 282 281 281 280 280 280 280 280 279 280 282 281 280 279 278 277 276 275 276 276 276 275 276 278 279 277 275 277 281 282 282 283 284 283 283 284 283 282 282 283 284 286 287 287 287 287 288 288 288 288 289 289 290 290 291 291 292
292 291 290 289 289 288 286 287 287 287 287 285 284 283 283 283 282 281 281 281 280 279 279 279 280 280 279 280 279 278 277 277 276 276 276 274 276 276 276 277 278 277 276 274 277 277 278 277 278 278 277 279 281 280 281 280 282 285 286 286 286 287 287 287 287 288 288 289 289 289 290 290 290 290
289 289 288 288 287 286 286 287 288 288 288 288 286 285 283 283 282 281 281 280 280 279 279 280 280 279 279 279 278 277 277 277 276 275 275 273 274 274 273 274 275 275 275 274 273 275 278 278 277 277 276 277 279 277 277 278 282 284 286 286 286 286 287 287 287 287 288 288 289 289 289 289 289 289
288 287 287 286 286 286 286 287 288 289 289 288 288 287 286 285 283 282 281 280 280 280 280 279 280 279 279 278 278 277 277 276 276 274 273 273 272 270 270 268 272 275 274 272 270 273 276 276 273 275 276 276 277 277 277 282 283 284 285 285 285 286 286 286 287 287 288 288 288 288 289 289 289 289
287 286 285 284 285 285 285 285 286 287 288 288 288 288 287 287 287 286 283 281 280 280 280 280 280 280 279 278 277 277 277 276 275 275 275 273 271 269 268 269 268 273 276 273 271 272 274 275 273 274 276 276 276 277 280 282 284 284 285 285 285 285 285 286 286 287 287 287 287 288 288 288 288 288
285 284 284 283 283 283 283 283 283 283 284 287 287 287 287 287 288 288 287 287 283 282 282 281 280 280 279 278 278 277 277 277 274 274 273 274 273 271 271 271 270 274 275 273 270 270 272 274 273 272 275 275 275 276 278 282 283 283 284 284 284 285 285 285 286 286 286 286 287 287 288 288 288 287
284 284 283 282 282 282 282 282 282 282 282 282 282 282 281 281 283 286 286 286 285 283 282 280 280 280 279 279 278 278 279 275 272 273 274 276 274 272 271 272 273 275 276 271 269 267 270 273 273 271 274 275 275 274 278 281 282 283 283 283 284 284 284 285 285 285 286 286 286 287 287 287 287 286
284 284 283 282 282 281 281 282 282 281 281 281 280 279 278 279 279 279 280 281 281 281 281 280 281 280 280 279 278 277 278 277 276 277 277 276 274 273 272 273 274 273 275 274 272 265 267 270 269 271 273 274 273 274 276 280 281 281 282 283 283 283 284 284 284 285 285 285 286 286 286 287 286 285
282 282 282 281 281 281 281 283 285 283 281 280 278 278 277 277 278 279 282 284 284 282 281 281 280 279 281 281 279 279 278 277 277 275 272 270 269 268 266 268 269 269 271 273 269 266 266 269 269 269 271 272 271 272 270 277 279 280 281 281 282 282 283 283 284 284 284 284 285 285 286 286 286 284
282 282 281 281 281 281 280 284 286 286 283 279 278 278 278 277 277 278 281 284 285 284 284 284 284 284 283 283 283 282 282 280 278 273 270 268 265 266 265 266 265 267 269 269 269 267 267 268 269 268 268 270 269 268 269 270 276 279 279 280 281 281 282 283 283 283 283 284 284 285 285 285 285 283
280 281 282 281 281 281 280 286 287 287 283 279 279 278 278 277 278 279 280 280 281 283 282 282 282 282 282 282 282 282 282 282 280 272 270 266 265 265 265 265 263 268 268 269 271 265 265 268 269 268 268 268 265 267 268 271 272 275 276 278 279 280 281 282 282 282 283 283 284 284 285 285 283 280
281 280 282 282 282 281 282 287 288 287 283 279 280 280 279 278 278 279 279 279 278 279 277 276 277 278 279 279 278 278 281 281 280 275 271 265 266 266 265 265 264 264 263 269 270 266 265 268 268 268 265 261 263 265 266 270 269 270 271 273 273 277 279 280 280 281 282 282 283 284 284 284 283 279
278 280 280 283 286 285 285 287 288 288 285 281 281 281 280 279 279 280 279 279 278 278 277 276 276 275 276 276 276 275 276 277 276 274 271 271 268 266 266 266 266 264 261 266 274 267 267 267 266 267 265 263 262 264 268 268 269 269 269 271 271 275 276 277 277 279 280 281 282 283 283 284 283 279
280 279 279 279 286 287 286 287 288 288 287 285 282 282 281 281 281 281 278 279 279 277 275 274 273 273 273 273 273 273 273 273 272 272 274 272 271 268 267 265 266 267 266 267 277 271 267 268 266 265 262 262 263 265 266 267 268 268 270 271 270 271 272 272 273 273 277 279 280 282 282 283 283 281
281 279 277 277 282 287 287 288 288 288 287 286 283 282 284 284 283 280 279 279 277 275 274 273 272 272 272 272 271 272 272 272 272 272 272 273 270 269 270 269 266 264 263 267 276 271 269 268 266 263 264 264 264 267 265 265 266 268 270 270 270 271 271 270 271 272 273 275 275 279 280 282 282 283
282 280 277 279 282 286 287 288 288 288 288 286 283 284 285 284 283 281 277 277 275 274 273 273 272 272 272 271 271 271 271 272 273 273 273 272 272 271 270 271 269 269 269 269 271 272 270 267 268 265 263 264 264 265 265 264 264 269 269 270 270 270 270 270 270 271 273 274 275 279 280 281 281 282
282 279 277 278 283 285 286 287 288 288 288 285 285 285 285 284 283 277 276 275 275 273 273 272 272 272 273 272 272 272 273 272 273 273 272 271 271 270 269 269 270 271 271 270 269 269 269 266 265 265 264 263 263 263 262 266 267 268 268 270 270 269 270 269 270 271 272 274 274 276 276 275 276 277
282 282 284 284 284 285 286 287 287 287 287 287 286 284 284 283 280 276 275 274 274 272 272 272 272 272 273 273 273 274 273 272 271 270 270 270 270 270 270 270 270 270 271 271 270 270 269 268 266 265 264 263 263 264 265 264 266 267 269 269 268 269 270 269 271 271 272 273 274 275 275 275 275 277
285 286 285 285 285 285 285 285 285 284 285 286 286 284 283 281 278 275 274 273 273 272 272 272 272 272 273 273 273 272 271 270 269 269 269 269 269 270 269 269 270 271 271 271 271 271 270 268 267 266 263 263 264 264 265 265 265 267 269 269 269 270 267 268 271 272 272 272 273 274 275 276 276 276
280 283 283 283 284 284 284 284 284 284 284 284 284 283 282 279 277 275 274 273 273 272 272 272 273 274 273 272 271 270 269 269 269 270 270 269 269 270 270 270 269 270 271 270 271 271 270 269 268 267 264 263 264 266 266 267 266 266 268 269 269 266 268 270 270 271 272 272 273 274 275 275 275 276
282 282 282 283 282 282 282 283 282 282 282 282 281 280 278 276 275 275 275 275 273 273 273 273 273 272 271 270 270 270 269 269 269 271 270 270 269 270 270 268 268 269 269 269 268 269 271 270 268 267 267 266 264 264 264 265 265 266 267 269 269 269 269 268 269 270 272 272 272 272 273 273 274 275
280 280 279 279 279 279 279 280 280 280 279 279 278 276 275 274 274 274 274 272 272 272 272 272 272 271 270 269 270 269 269 269 269 271 269 270 268 269 270 268 268 268 268 268 269 268 267 267 268 268 267 267 267 266 264 263 263 265 265 267 268 268 269 270 269 270 271 271 271 271 271 273 274 275
276 276 276 276 277 277 278 278 278 278 278 277 275 274 274 273 272 272 272 272 272 272 271 271 271 270 270 269 269 269 268 269 269 270 270 268 270 268 268 268 268 269 269 269 268 268 267 266 265 265 265 266 267 267 266 264 263 264 264 265 266 267 270 270 270 270 270 270 270 269 270 271 273 274
276 275 275 276 276 277 277 277 277 277 276 275 275 274 273 272 272 272 271 272 271 271 270 270 271 270 270 269 269 268 269 268 269 269 270 268 268 268 268 268 268 268 268 268 268 267 267 265 264 264 264 264 262 263 269 267 262 264 262 262 265 267 269 269 269 269 269 270 271 270 270 271 272 274
275 275 275 275 276 276 276 277 277 276 276 275 274 274 272 272 271 271 271 272 271 270 270 270 269 270 269 269 269 269 268 268 268 268 268 268 267 268 268 268 268 268 268 268 267 267 266 265 264 263 262 261 260 260 261 271 270 265 264 263 263 265 268 268 268 268 269 269 268 269 268 269 270 272
275 275 275 275 275 275 275 276 276 276 275 274 273 273 273 272 271 271 271 272 270 270 269 269 269 269 269 269 269 269 268 268 267 268 267 268 268 267 267 267 268 268 267 268 268 267 267 265 265 263 261 260 259 260 262 262 271 273 267 263 265 266 267 268 269 269 269 267 266 267 268 269 270 272
276 276 275 275 276 276 276 276 276 276 275 275 274 274 274 273 272 272 271 270 270 269 269 269 269 269 269 268 268 268 268 268 267 267 267 267 267 267 267 266 267 267 267 267 267 267 267 266 265 264 263 261 259 259 259 259 260 265 272 266 264 267 268 268 268 268 269 267 262 267 268 269 271 272
278 277 276 276 276 276 276 276 276 276 277 276 275 274 274 274 273 272 270 270 270 269 269 269 269 268 268 268 268 268 267 267 266 266 267 267 267 267 267 267 266 267 267 266 267 267 266 266 265 265 264 262 261 259 259 257 260 260 265 271 267 267 268 268 267 268 269 269 269 268 268 271 274 277
280 279 279 278 277 277 277 276 276 277 276 277 276 275 274 273 273 272 270 269 269 269 269 268 268 268 268 268 268 268 268 267 267 267 267 267 267 268 267 267 267 266 266 266 265 266 266 266 266 265 265 265 264 261 259 260 260 261 262 266 271 271 269 267 267 267 267 269 269 266 265 267 264 266
278 278 279 279 279 279 278 277 277 277 277 277 276 276 275 274 273 273 271 270 269 268 268 268 268 268 268 268 268 267 266 267 267 267 267 267 267 267 267 267 266 266 265 265 265 265 265 267 267 269 265 263 262 261 261 260 260 258 258 261 269 274 274 273 268 267 268 270 269 266 265 264 264 267
277 277 278 278 278 278 278 278 278 277 277 276 276 275 274 274 273 273 272 270 269 268 268 268 268 268 268 268 267 267 266 266 266 266 267 267 266 267 267 267 265 266 266 264 265 265 265 265 266 265 263 262 261 261 260 261 260 258 258 259 258 267 271 271 273 273 272 271 269 266 263 262 262 264
277 278 278 278 277 277 277 277 277 277 277 276 274 274 273 273 272 272 271 270 269 268 268 268 268 268 268 267 267 267 266 266 266 266 266 266 266 266 266 266 266 266 266 266 265 266 264 263 263 263 262 262 261 262 261 261 260 257 257 257 258 258 262 269 272 273 274 275 275 273 269 263 261 262
277 277 278 278 277 277 277 277 277 277 276 275 274 272 272 271 270 270 270 270 269 268 268 268 268 267 267 267 267 266 266 266 266 266 266 266 266 266 266 266 266 266 266 265 265 264 264 264 264 263 261 261 262 261 261 260 260 260 258 258 258 257 259 260 264 270 273 274 274 275 276 275 273 274
277 278 278 278 278 277 276 276 276 275 275 274 273 272 271 271 271 270 269 269 269 269 268 268 268 267 267 267 266 265 265 267 266 266 266 266 266 266 266 266 266 265 265 265 264 263 264 263 263 263 262 262 262 261 262 261 261 260 258 257 257 257 257 260 261 261 264 267 272 274 276 276 276 276
Wind_Speed
9 7 8 8 7 6 6 5 5 6 5 4 5 7 9 7 7 6 5 6 6 4 4 5 4 4 5 5 3 3 2 3 1 2 2 2 3 5 8 11 13 13 12 12 13 14 16 17 18 19 19 19 20 20 20 20 21 22 23 24 26 27 27 27 29 31 31 32 33 33 33 33 32 33
7 6 5 5 6 5 6 5 5 5 5 4 3 4 5 5 7 6 7 7 4 3 3 2 4 3 5 4 3 3 1 4 1 0 1 1 2 6 8 11 12 13 12 11 12 15 16 17 18 19 19 19 20 20 20 20 21 22 24 25 25 26 26 28 29 30 31 32 32 33 33 33 33 35
7 6 6 5 6 5 6 5 5 4 3 4 3 2 3 3 4 7 4 3 1 3 6 1 3 6 4 4 3 2 1 2 2 1 1 1 4 6 5 8 11 12 11 11 13 15 16 18 18 18 19 19 19 19 20 20 21 22 24 24 24 25 27 28 29 30 31 32 32 33 33 33 33 34
9 9 8 6 6 6 5 5 5 5 3 3 3 3 3 3 4 6 4 4 4 1 3 3 3 5 4 4 3 2 1 2 5 3 2 2 4 3 3 5 9 11 12 11 12 14 17 18 18 18 18 19 19 19 19 20 21 23 23 23 24 25 27 28 29 30 30 30 31 32 32 32 33 33
5 6 8 8 6 6 7 5 5 5 4 3 3 3 4 5 4 5 4 5 3 1 2 3 3 3 5 1 3 3 2 2 2 2 2 1 1 3 4 4 7 10 12 11 12 14 17 17 16 17 18 18 18 19 19 20 21 22 22 22 23 26 27 28 29 30 31 31 31 32 32 33 33 33
7 7 8 7 6 6 7 7 6 6 5 5 5 4 6 6 6 3 5 5 6 6 0 2 3 2 2 1 1 4 3 3 1 3 3 3 2 3 4 4 4 8 11 11 11 14 15 15 16 17 17 18 18 18 18 19 21 21 21 22 23 25 27 27 28 29 29 30 30 32 33 33 33 34
8 8 8 7 6 5 7 7 6 6 6 5 7 6 5 6 5 4 3 4 5 6 4 3 4 3 2 4 3 4 4 3 3 3 4 4 3 2 3 3 3 6 11 11 11 12 13 15 16 16 16 16 17 17 18 20 21 21 21 22 24 25 26 27 28 28 29 30 30 30 32 33 33 34
9 10 10 10 10 9 8 7 7 7 6 7 7 7 5 6 6 4 4 2 4 4 6 3 6 3 5 3 3 3 2 3 3 3 4 3 3 2 2 2 3 5 10 11 10 10 11 14 15 15 15 14 16 16 17 19 20 20 20 21 23 25 25 26 27 28 28 28 29 29 30 31 31 33
12 11 12 11 10 10 10 8 8 8 9 7 8 8 6 6 5 4 4 3 2 3 6 4 2 3 3 3 3 3 4 1 1 2 3 3 1 3 3 2 2 4 9 9 8 8 12 14 15 14 13 14 15 15 16 18 19 19 20 22 23 24 25 25 26 27 27 27 28 28 29 30 31 32
10 11 10 10 10 10 11 10 9 9 10 8 8 8 7 6 6 5 4 3 3 3 4 5 4 2 4 3 4 3 6 4 2 3 3 3 3 2 3 3 2 2 3 3 2 5 8 10 13 12 12 14 14 14 16 18 18 18 20 22 23 23 24 24 26 26 26 27 28 28 28 29 32 32
6 7 8 10 11 12 11 11 12 11 10 9 9 9 8 7 7 6 5 5 5 5 5 4 4 4 4 4 3 2 4 4 3 2 2 3 1 1 2 4 3 3 4 2 5 8 9 10 7 9 11 13 14 15 16 18 18 18 20 21 23 23 24 24 25 26 27 27 27 27 28 29 30 31
10 9 9 10 11 11 10 11 11 11 11 8 8 7 7 8 8 7 6 6 6 6 5 6 6 5 5 2 2 2 2 1 1 1 1 3 5 5 2 2 4 3 1 0 4 5 8 8 8 8 7 9 12 13 14 16 17 18 20 21 22 23 23 24 25 25 26 27 27 27 28 29 30 31
6 6 6 7 8 9 11 13 11 11 10 11 10 8 8 9 8 7 7 7 6 6 5 6 5 5 5 5 5 4 3 4 4 1 2 1 2 4 5 6 4 3 1 2 4 4 5 6 5 3 2 4 6 7 12 11 14 18 20 21 22 22 23 23 24 25 26 26 27 27 27 28 29 30
6 7 7 7 11 12 13 14 14 14 12 10 10 12 11 10 9 8 8 8 7 7 8 8 7 6 6 6 6 5 3 2 2 1 1 1 3 3 3 4 2 2 3 1 3 5 6 5 6 3 4 3 3 5 6 7 12 16 21 22 21 22 22 23 24 24 25 25 26 26 27 27 28 29
8 6 6 6 9 10 11 12 15 14 13 11 10 11 12 11 12 11 9 8 8 9 8 6 6 7 7 6 4 4 4 2 2 1 1 2 2 2 3 2 3 1 3 1 2 5 4 3 3 5 5 4 4 6 7 16 17 19 21 21 21 21 22 22 23 23 23 24 25 26 26 27 28 29
8 7 7 5 6 7 8 8 9 10 11 11 13 13 13 12 10 8 10 10 8 8 7 7 8 6 7 5 4 3 4 4 2 1 1 2 2 3 2 3 3 3 3 3 3 6 4 0 2 5 5 4 4 7 12 16 16 19 20 20 20 21 21 22 22 23 24 24 24 25 26 27 28 28
8 7 7 7 5 5 10 9 7 8 8 9 12 12 11 10 10 10 8 5 5 6 7 7 7 7 5 6 4 4 5 4 4 2 2 2 3 3 5 5 3 6 2 3 3 4 4 2 4 4 6 4 4 7 10 15 15 20 20 19 20 21 21 21 22 22 23 24 24 24 25 26 27 27
8 9 9 9 8 6 8 8 9 8 8 8 8 7 6 5 6 7 7 5 5 3 5 6 6 3 4 5 3 4 5 5 4 4 4 3 4 4 6 4 5 7 5 3 2 2 0 2 4 5 7 5 5 6 10 13 17 21 20 20 21 21 22 21 22 22 23 24 24 24 25 26 26 26
8 8 8 8 9 9 9 9 10 10 9 8 7 6 5 5 4 4 4 4 3 3 2 3 4 3 3 5 5 5 5 6 3 3 4 3 4 4 4 6 6 6 2 1 2 3 2 2 4 4 7 8 6 5 8 11 19 21 21 21 21 22 22 22 22 23 23 23 24 24 24 26 26 26
6 7 8 8 9 9 9 10 14 10 8 8 9 8 5 4 4 4 3 4 4 4 3 3 3 3 4 6 6 5 5 3 3 2 2 1 1 3 4 6 3 1 3 3 2 2 2 1 4 3 5 6 6 5 2 11 19 20 21 21 22 22 22 22 23 23 23 23 23 24 25 25 26 26
6 6 7 7 7 8 8 11 16 15 11 8 9 8 7 5 4 4 4 9 9 8 7 5 7 8 8 7 7 7 8 6 4 3 1 5 3 2 2 4 1 2 1 1 2 1 5 2 4 5 3 6 4 3 1 4 12 20 20 21 22 22 22 22 22 23 22 23 23 23 24 24 24 26
4 5 10 8 7 8 7 13 16 17 12 9 9 8 8 7 7 6 5 4 5 8 6 5 4 4 4 5 7 8 9 9 8 7 7 4 5 3 3 5 2 4 2 1 0 2 3 4 5 6 4 4 2 1 2 4 7 13 14 19 21 21 22 23 23 22 23 23 22 23 24 24 22 13
6 5 8 11 9 7 7 15 16 17 12 9 9 10 9 9 9 8 7 7 7 6 4 2 3 2 4 3 3 4 9 10 8 6 5 3 3 5 4 3 3 5 1 1 0 3 4 6 6 6 7 2 4 1 0 5 5 5 5 8 11 18 21 22 22 22 23 23 23 23 24 24 21 9
4 6 6 8 10 11 12 15 16 16 15 9 8 8 9 9 10 7 7 7 7 6 6 4 4 4 2 3 2 2 3 4 4 3 3 4 5 5 5 4 3 3 3 1 4 3 2 3 4 4 2 3 5 5 4 7 6 5 4 7 7 14 17 17 15 20 21 22 22 22 24 24 23 10
6 6 5 4 6 11 13 16 17 16 16 11 8 9 9 7 4 9 7 8 9 6 6 5 4 4 3 3 3 4 4 4 4 4 4 4 4 5 5 4 5 6 4 3 4 3 1 2 2 2 2 1 4 7 4 4 7 4 6 6 7 9 8 9 8 9 13 18 19 21 22 23 25 18
4 4 3 4 5 9 12 15 16 17 16 15 8 9 8 8 12 9 6 6 7 6 6 5 5 4 5 5 5 5 5 5 6 5 5 4 4 3 5 6 6 4 4 3 5 2 1 2 1 2 2 2 5 5 8 6 3 7 7 6 6 7 7 8 8 9 9 8 8 13 17 22 21 23
3 1 2 2 5 8 10 13 16 16 17 13 8 11 11 11 11 8 5 6 6 6 5 5 6 6 6 6 7 6 6 5 5 5 4 4 3 3 2 2 3 5 4 2 1 0 1 2 0 0 2 2 5 7 6 5 6 8 9 7 8 7 6 6 8 9 8 8 8 15 14 16 20 21
2 1 2 3 8 9 10 13 14 15 15 9 11 12 12 12 10 6 6 6 6 6 6 6 7 7 6 6 6 6 5 5 5 4 3 3 2 2 1 2 3 4 4 4 4 4 4 4 2 1 2 1 3 5 7 7 6 6 9 10 7 4 6 5 7 9 9 8 8 8 7 8 9 10
3 6 8 8 11 12 11 13 13 12 13 13 11 14 14 11 6 7 7 7 6 7 8 8 6 6 6 6 5 3 5 4 4 3 1 2 3 3 3 5 5 5 5 5 5 5 5 5 5 3 2 3 2 4 4 7 7 7 7 9 10 10 9 6 7 8 9 9 8 8 7 8 8 10
9 10 11 12 13 12 10 8 8 8 9 13 14 15 13 8 6 6 6 6 8 8 7 6 7 6 4 4 4 5 5 6 5 4 3 3 4 4 4 3 4 5 6 6 5 5 5 5 5 4 4 3 4 4 4 6 7 6 7 6 7 9 3 5 8 8 9 9 8 8 6 7 7 8
6 9 9 9 11 10 14 13 10 8 8 9 10 9 8 6 5 6 6 7 7 7 6 6 4 4 4 4 5 5 6 6 5 5 4 5 4 4 3 3 4 2 3 4 5 5 5 5 5 5 4 3 3 5 4 4 7 7 6 5 5 6 9 9 7 8 8 8 8 7 5 6 7 9
6 6 7 9 8 7 7 8 7 8 8 8 8 7 6 5 5 6 6 5 5 5 4 3 3 4 6 7 6 5 5 5 5 6 6 5 4 3 3 2 4 2 1 1 1 2 4 4 4 4 5 5 5 4 2 4 5 5 6 5 6 6 4 6 7 8 9 8 7 7 6 5 7 8
4 5 5 5 6 7 8 8 9 9 8 7 5 5 5 5 6 6 7 9 8 7 6 7 7 6 6 7 5 6 5 6 6 5 6 4 6 3 3 5 4 2 3 2 2 1 3 4 3 4 5 5 6 6 4 5 5 4 3 4 5 6 5 5 6 8 9 7 6 6 7 6 5 7
5 6 6 7 8 8 8 9 9 9 7 6 5 4 5 5 6 7 8 7 7 6 7 7 6 7 7 7 6 7 7 5 5 6 7 6 5 5 5 5 5 4 4 4 3 4 2 2 1 2 2 5 6 8 8 7 6 4 4 3 4 5 5 5 7 8 8 5 5 6 6 7 6 6
7 7 7 7 7 7 7 7 7 6 6 7 7 7 6 6 7 7 8 8 5 5 5 6 5 5 6 7 6 7 7 7 5 5 5 5 5 6 6 5 5 5 5 5 4 3 4 3 1 2 4 4 4 4 10 11 6 6 3 4 3 4 4 4 6 7 8 7 4 5 5 5 6 6
6 6 7 7 7 6 7 8 5 6 7 7 7 6 7 7 6 7 8 5 5 6 6 7 6 6 6 6 5 5 5 5 5 5 6 6 6 6 5 6 6 5 5 5 5 3 3 4 3 1 1 3 3 4 5 13 14 6 5 2 2 3 2 3 5 6 6 6 5 4 4 5 6 6
7 6 7 7 6 7 8 6 7 6 6 6 7 7 8 8 8 8 7 5 6 7 8 7 8 7 6 5 5 4 4 4 5 5 4 5 5 6 6 6 6 6 6 6 5 5 4 5 4 4 2 1 1 4 6 2 13 13 5 3 2 2 2 2 5 6 5 5 6 5 4 5 5 5
8 6 7 6 7 7 7 6 6 7 7 7 8 9 10 10 8 9 8 9 10 9 9 9 9 8 7 7 7 7 6 7 6 7 8 7 7 7 7 7 6 6 6 5 5 5 5 5 5 5 5 5 4 3 3 3 2 3 3 2 1 3 3 2 3 5 6 5 4 6 5 5 5 5
7 6 7 7 7 6 7 6 6 7 7 8 8 9 9 9 8 7 8 10 9 9 8 9 9 9 9 9 9 9 9 8 8 8 8 8 8 8 7 7 7 6 5 6 5 5 5 6 6 6 7 6 7 5 4 1 5 5 9 12 4 4 5 2 2 4 5 6 6 6 5 4 6 6
7 6 7 7 7 6 6 6 6 7 8 8 8 8 8 9 8 8 9 8 9 9 9 9 9 8 9 9 9 8 8 10 10 8 9 8 8 8 8 7 7 6 6 6 6 6 6 7 7 7 6 7 5 4 4 3 4 5 7 12 14 8 5 4 3 3 4 5 5 4 6 6 5 4
6 7 7 7 7 7 7 7 7 7 8 8 8 7 8 9 9 9 9 9 8 9 9 10 10 11 10 10 10 10 10 9 9 9 8 8 9 9 9 8 6 6 7 8 7 7 9 7 5 6 6 4 5 3 1 2 6 4 4 6 6 8 10 7 4 3 4 6 6 5 5 5 5 4
5 7 6 6 6 6 6 7 7 8 8 7 8 8 8 8 9 8 9 8 9 10 10 10 11 11 11 10 10 10 10 11 10 10 10 9 9 9 9 9 8 8 8 9 9 8 3 4 6 6 5 5 4 3 6 6 6 4 3 2 3 4 4 6 9 9 6 6 4 4 2 4 2 2
6 6 7 6 6 6 6 7 7 8 8 7 7 7 7 8 7 8 8 8 9 9 10 10 10 10 10 9 9 10 10 11 11 11 11 10 10 10 10 10 9 9 8 6 3 4 4 5 5 5 4 4 4 5 7 7 5 4 3 3 3 3 5 6 6 8 10 10 7 6 4 5 0 1
6 6 6 6 6 7 7 7 7 7 7 7 7 7 7 8 8 9 8 9 9 10 10 10 10 10 10 9 9 9 10 11 10 11 12 11 11 10 9 8 8 7 6 5 4 4 5 5 4 5 5 5 5 6 8 5 6 6 5 3 1 1 4 5 5 5 6 7 8 10 10 8 8 6
5 6 6 6 6 6 6 6 7 7 7 7 6 7 7 8 8 8 8 8 9 9 9 9 9 9 9 9 9 11 12 9 9 9 8 8 8 8 8 8 7 7 7 7 6 5 5 4 4 4 5 5 5 6 7 6 6 5 3 1 4 3 3 1 1 3 3 4 4 8 9 8 9 7
Wind_Direction
188 184 185 187 165 163 142 119 119 131 124 125 140 175 182 183 160 180 213 236 196 227 176 145 218 167 154 149 156 120 112 163 132 75 62 13 341 310 323 327 328 328 328 330 332 332 332 333 336 338 339 339 340 340 340 339 339 341 341 341 341 341 341 340 338 336 334 332 331 328 327 326 325 324
178 164 157 147 144 147 135 128 115 109 121 118 117 150 162 163 175 169 181 236 188 185 219 144 169 181 162 146 126 135 155 174 146 90 75 352 299 294 309 313 315 314 316 323 328 327 327 330 334 337 337 337 338 338 339 339 340 341 342 342 341 342 341 339 337 335 334 333 331 327 330 329 328 325
158 156 148 136 141 143 137 126 109 94 99 117 105 120 120 104 131 135 134 188 277 140 184 219 132 150 167 140 142 145 199 197 190 192 184 229 260 277 290 290 297 306 313 321 328 325 325 327 331 334 333 334 335 337 338 340 342 343 342 342 343 343 340 338 336 335 333 332 330 328 330 328 330 328
168 159 151 154 152 143 131 126 127 122 99 104 121 130 128 110 112 120 128 166 223 328 181 144 113 133 131 147 132 191 244 221 194 224 242 236 249 271 273 281 291 301 309 317 323 322 322 325 330 332 332 332 333 335 337 340 343 345 344 343 343 342 339 337 336 335 334 331 330 328 330 330 329 329
145 150 149 155 151 144 142 146 135 137 137 117 125 139 128 132 127 135 145 167 203 326 35 111 141 136 119 124 167 184 221 271 289 275 236 229 271 279 278 279 282 288 300 309 314 316 319 322 327 330 330 330 331 333 337 341 344 345 345 345 343 340 338 337 336 334 333 332 332 332 332 331 332 330
156 149 147 151 151 158 153 154 159 162 153 158 154 170 158 159 149 135 144 174 158 197 282 70 89 90 105 140 207 178 209 257 293 307 297 302 266 264 268 270 279 280 293 305 309 313 313 316 325 329 328 329 331 334 338 341 343 344 345 343 340 339 338 337 336 334 332 333 334 333 332 331 332 334
156 148 147 152 151 148 151 163 163 156 168 164 168 174 165 157 156 139 129 140 184 180 215 179 156 169 160 168 234 203 194 205 209 247 277 266 272 242 229 246 272 278 296 302 310 311 310 315 322 325 325 327 332 335 340 344 345 344 345 342 339 339 338 337 336 334 333 335 336 335 332 333 335 335
166 168 163 168 166 167 164 165 162 165 166 173 173 169 166 150 152 153 123 123 154 175 165 213 172 196 166 234 220 201 177 191 258 243 263 273 266 272 273 240 251 280 293 301 304 310 315 317 320 323 326 329 332 337 342 343 343 344 343 339 338 338 339 338 336 334 335 336 336 335 334 335 333 335
173 173 178 174 169 166 162 164 165 169 176 180 170 168 160 150 146 131 137 139 123 150 186 199 215 168 181 203 213 187 173 270 277 291 267 254 280 311 283 261 260 267 290 293 302 315 317 315 315 321 329 334 336 341 344 342 341 342 340 337 339 339 339 338 337 336 336 337 339 336 335 336 335 338
177 174 168 164 167 169 169 173 171 172 176 172 168 161 155 146 138 138 134 141 150 169 200 182 218 207 182 229 221 206 159 168 241 295 307 359 348 328 335 324 281 269 256 262 317 328 307 299 305 316 333 336 337 343 344 343 342 341 338 337 339 339 339 337 336 337 339 339 338 338 339 337 340 344
170 172 165 168 174 178 178 171 176 175 172 173 170 166 156 150 143 149 159 158 172 187 202 228 206 218 240 178 220 238 175 177 183 194 349 315 249 329 289 298 289 253 273 311 5 314 307 302 301 316 334 337 339 346 344 342 339 338 338 340 340 340 340 340 339 339 341 341 340 339 340 343 344 343
177 177 178 179 180 179 177 175 177 172 170 164 163 164 150 150 150 159 163 171 179 189 201 207 216 207 211 227 206 160 122 90 347 94 127 284 311 316 299 249 264 289 153 317 293 296 295 291 289 299 315 327 340 344 341 334 331 336 339 341 340 340 341 340 341 342 341 341 342 343 344 344 345 345
171 172 175 179 179 176 175 176 174 178 171 162 160 167 158 157 158 159 169 177 178 192 195 219 212 201 199 206 185 180 172 182 200 218 82 275 283 293 314 304 257 184 133 259 258 281 273 273 278 268 283 299 332 337 335 323 319 337 342 343 341 342 343 342 342 343 344 344 346 346 344 346 346 347
174 176 173 176 174 173 170 169 171 173 177 178 169 164 164 162 162 169 171 180 188 185 196 204 190 193 212 210 191 188 206 158 106 65 41 309 290 318 286 278 231 130 69 358 298 283 277 260 286 303 326 311 337 337 323 318 335 340 345 344 344 344 344 343 343 345 348 348 346 345 346 347 348 349
176 176 168 158 165 166 165 166 167 169 169 165 162 164 166 168 167 167 176 191 183 189 200 192 188 199 203 208 181 174 174 120 134 153 174 241 300 326 341 312 297 160 70 339 288 280 274 257 297 317 322 328 342 329 317 331 339 344 346 345 345 346 346 344 346 348 348 348 347 347 349 349 349 351
171 165 157 157 158 163 161 154 154 155 156 157 159 161 163 170 178 183 176 175 184 193 188 192 202 184 202 197 168 172 138 143 100 161 164 225 233 267 250 254 250 237 49 332 299 281 268 125 11 323 325 345 334 317 325 332 344 348 346 347 347 349 346 345 347 348 348 348 349 349 350 351 351 353
170 161 159 160 163 158 153 148 152 150 148 145 146 147 148 153 164 174 183 188 190 174 181 188 196 193 179 176 201 169 149 128 154 186 216 227 243 235 254 251 267 293 346 325 280 281 279 104 356 325 317 340 317 313 318 333 350 348 348 348 350 350 348 347 347 347 348 350 351 351 352 353 354 355
171 170 170 167 171 168 163 161 159 157 154 151 144 145 150 155 161 167 175 159 138 150 179 177 192 192 158 184 157 149 139 141 171 179 212 221 238 245 246 256 270 284 296 255 303 310 256 56 16 335 314 319 316 305 319 341 353 351 350 350 353 352 348 347 347 348 349 352 352 353 354 355 357 357
174 175 176 177 176 173 173 175 167 161 161 155 152 151 160 164 168 170 180 177 157 153 140 158 172 185 154 149 138 139 138 147 166 168 206 214 228 254 281 290 264 276 266 168 18 273 243 14 21 329 316 317 314 299 318 350 357 352 349 352 355 352 347 347 348 350 352 354 355 355 356 357 359 358
174 175 178 179 179 179 180 178 170 161 152 152 155 161 160 162 170 193 187 173 156 164 172 173 179 169 141 135 134 132 125 117 115 94 38 10 325 300 298 280 297 256 301 47 106 286 281 16 16 310 303 301 300 308 320 10 356 353 350 353 355 349 346 347 348 350 353 356 357 358 358 358 359 358
173 178 181 184 183 180 184 178 171 164 153 155 161 163 166 168 168 188 182 194 188 167 158 159 169 153 153 161 167 173 177 169 153 120 167 254 206 187 275 296 318 274 332 343 105 212 302 348 8 317 295 290 283 293 34 19 358 351 349 352 352 346 345 347 348 350 354 357 359 360 360 359 1 358
175 184 186 185 185 186 183 179 174 168 158 163 167 165 167 174 184 184 159 155 152 149 134 136 145 154 172 192 205 206 207 209 176 148 195 219 137 193 204 241 276 293 346 291 354 53 273 336 353 341 293 296 266 196 25 17 3 344 340 347 347 343 344 346 347 351 354 357 360 1 2 1 5 356
180 191 191 190 187 188 179 183 180 173 165 171 174 174 173 189 198 192 167 174 172 163 151 177 164 198 206 217 200 208 214 214 201 176 193 188 144 207 229 242 330 355 320 225 137 48 302 21 343 14 348 348 280 147 316 6 347 330 325 341 338 338 343 343 345 350 355 358 0 2 3 3 6 356
206 201 198 200 188 180 180 186 184 180 173 176 175 172 189 193 207 169 173 180 180 178 169 181 177 176 191 186 173 189 221 209 185 185 183 188 179 193 215 217 191 200 235 263 73 91 280 67 338 44 56 322 310 303 357 333 345 319 334 344 343 334 336 338 339 344 352 359 360 2 4 6 9 1
202 208 209 206 198 183 180 184 187 185 184 180 181 191 202 199 145 147 173 178 168 167 161 170 167 174 178 197 195 205 208 207 200 193 199 185 184 177 199 215 233 246 255 274 23 80 340 355 330 31 336 286 274 313 315 333 311 320 347 348 336 331 333 330 331 331 339 350 353 1 5 6 9 10
222 211 191 204 218 196 179 185 188 189 189 188 185 202 190 163 163 167 168 163 161 164 165 167 182 186 202 210 211 211 210 207 206 200 197 183 176 182 179 187 214 244 264 293 10 51 51 306 122 34 298 346 284 318 315 323 298 326 341 343 336 324 331 324 332 331 335 338 330 357 4 5 8 11
248 160 185 181 201 212 195 194 195 196 196 189 197 191 185 180 172 152 163 167 159 166 173 181 201 204 202 206 208 205 208 207 199 194 185 177 175 196 191 197 202 222 256 283 334 307 234 227 308 106 262 322 303 310 305 310 321 334 329 347 336 331 326 329 334 331 327 331 327 337 354 358 4 5
217 169 157 171 194 210 212 208 206 207 202 201 192 188 187 181 176 149 169 175 173 167 181 201 211 210 204 200 206 207 194 191 188 182 164 147 127 154 225 272 271 263 262 263 252 244 201 206 222 181 168 197 300 302 308 301 301 323 331 326 323 308 322 331 340 333 326 327 329 336 352 353 350 350
158 157 164 171 190 199 210 214 218 219 217 211 191 190 192 186 178 171 178 180 173 190 204 210 210 212 207 201 197 166 152 135 114 120 141 167 204 207 220 225 230 236 240 239 234 229 207 197 215 195 167 177 204 270 284 293 310 314 332 331 327 336 328 340 343 333 325 327 333 333 351 348 347 346
149 151 161 172 182 193 201 206 209 212 213 215 202 195 197 198 188 174 176 182 193 209 208 208 214 210 178 178 157 134 132 147 175 160 185 196 224 195 205 229 242 223 226 228 222 222 210 201 189 177 201 223 197 238 267 289 296 306 318 319 313 310 287 344 337 332 325 326 328 328 325 341 345 344
149 159 162 174 181 188 199 204 210 217 221 221 214 209 198 191 173 175 186 195 205 210 211 214 209 181 165 128 138 168 168 180 186 178 189 196 199 183 209 219 263 230 244 231 219 202 196 193 183 163 192 239 237 225 237 259 287 303 305 311 325 320 318 326 333 325 320 321 316 327 319 339 344 347
155 157 168 178 185 190 197 205 207 213 210 214 208 198 182 161 156 175 188 203 218 224 214 209 172 166 146 176 184 181 187 195 194 191 191 190 188 186 168 202 245 253 245 287 287 225 182 187 179 193 192 208 245 257 214 241 255 276 294 309 315 302 298 322 323 321 316 315 318 334 329 344 352 348
144 153 170 180 183 192 202 206 211 212 211 215 186 174 167 156 168 185 195 207 213 208 201 209 202 195 172 187 188 193 197 203 190 194 182 195 160 208 192 210 223 235 263 248 167 173 184 213 205 188 205 224 227 228 233 275 258 237 269 293 313 303 317 328 322 312 313 318 326 328 326 341 351 351
167 189 192 200 196 202 205 213 214 214 211 203 194 196 179 179 188 200 209 216 216 207 212 216 208 205 182 194 200 201 205 204 187 194 182 189 176 170 201 211 224 212 222 242 197 195 199 163 115 319 275 253 235 213 200 211 243 265 254 289 284 301 313 327 325 312 309 287 312 329 333 329 341 351
197 204 211 215 211 216 217 225 222 210 203 207 203 205 196 205 204 206 213 219 213 219 222 231 229 222 211 216 209 209 209 198 192 185 188 156 197 191 194 208 218 208 208 228 226 185 157 180 133 5 325 326 341 295 207 192 186 230 269 260 266 286 310 330 324 315 307 306 330 335 320 317 339 343
221 214 223 223 222 216 223 227 215 211 211 210 207 208 208 219 211 215 226 209 205 217 217 222 223 220 222 224 225 225 224 201 195 190 193 187 185 199 200 213 211 215 203 210 219 203 170 188 156 142 332 321 359 318 321 204 185 172 193 253 265 283 297 330 318 302 309 313 328 337 324 330 318 331
221 221 226 230 226 220 230 222 217 220 207 206 208 206 215 221 214 214 214 191 207 213 217 217 223 217 218 213 212 221 223 211 204 208 208 207 196 194 201 217 213 206 209 219 190 194 190 198 188 164 148 243 257 258 254 319 204 203 155 223 263 277 289 324 311 308 315 324 320 326 320 313 302 311
230 224 235 235 234 234 233 224 213 219 212 206 208 210 216 218 211 208 195 199 211 207 209 211 217 211 210 202 197 202 193 205 200 207 208 202 199 203 204 207 213 210 212 211 195 202 197 190 193 185 176 201 211 246 276 298 7 249 182 74 325 297 290 292 294 309 313 314 299 301 314 308 305 293
234 234 235 240 240 239 240 237 223 229 222 219 217 218 220 220 216 208 200 210 210 209 208 211 214 209 206 204 203 201 202 201 205 209 207 207 204 200 205 203 208 215 199 214 201 193 195 207 202 191 190 187 199 209 176 206 261 267 303 300 281 281 266 245 275 285 301 307 316 312 289 264 279 309
244 241 241 242 245 238 243 237 236 235 236 231 228 223 220 221 218 214 212 210 210 211 207 212 211 208 213 209 205 206 210 210 210 207 208 208 206 202 204 205 201 196 203 210 205 213 206 215 205 196 194 204 199 165 162 204 248 270 274 285 273 245 229 200 240 268 284 282 294 315 308 325 330 310
255 252 250 242 245 241 241 241 237 238 238 234 230 224 216 220 219 222 216 211 207 204 208 210 209 211 215 211 206 201 208 211 208 208 208 209 209 207 200 192 203 194 198 222 213 211 217 211 193 177 162 125 121 98 36 323 275 279 282 275 280 243 238 247 207 200 254 275 276 273 292 290 279 310
247 256 256 248 244 242 234 240 240 239 242 234 229 226 223 221 228 215 211 202 204 206 209 210 211 213 216 210 206 204 209 210 207 205 204 203 205 208 196 196 200 200 199 213 214 216 174 126 133 120 114 120 104 142 219 220 238 267 269 276 305 322 334 301 274 256 244 248 267 279 300 318 356 336
254 259 262 255 250 244 236 239 240 240 242 235 226 223 222 225 227 216 217 210 208 206 213 215 215 215 216 211 207 206 210 214 211 207 205 203 202 199 200 202 202 199 207 215 186 148 149 148 139 131 132 139 181 176 224 227 217 240 275 303 278 315 318 312 292 270 257 258 277 299 217 186 179 278
253 258 261 256 254 252 244 240 242 240 239 235 228 219 219 219 223 220 215 216 210 214 214 217 217 216 216 212 208 210 215 217 213 209 207 207 202 202 201 200 196 192 198 197 182 176 160 167 172 158 160 199 181 191 230 230 245 236 240 242 272 356 310 298 321 312 292 278 266 302 297 219 206 246
260 260 267 266 262 258 253 247 246 245 238 234 228 224 223 224 230 226 220 218 220 219 216 218 218 218 215 210 206 214 219 213 213 219 213 208 206 201 200 194 191 190 196 193 179 195 185 180 190 178 194 204 191 212 225 221 233 238 241 255 271 277 267 257 321 306 309 303 287 312 315 240 239 202